Retour au catalogue

USA 40 R/B DEB

ActifUNKNOWN
NORAD 23381·DEBRIS·🇺🇸 United States

Lancé Aug 8, 1989 depuis Cape Canaveral Space Force Station

Loading…

Prochains Passages (prochaines 24 heures)

TLE

FraisSource: Space-Track

Époque: Sep 14, 2026, 03:18 UTC

1 23381U 89061BD  26257.13752752  .00009105  00000-0  34883-2 0  9998
2 23381  56.9000 306.1635 2269410 131.0727 250.9656 10.41187614270081

Suivez USA 40 R/B DEB en temps réel avec AllMySat

Download on the App Store